| time (UTC) | temp C | wind direction | speed KPH | gust KPH | rain 1hr cm | rain 24hr cm | rain mn cm | humidity % | barometer mb |
| 20260506001830 | 22 | 263 | 0.0 | 0.0 | 0.00 | 0.00 | 0.00 | 53 | 1025.8 |
| 20260506001703 | 22 | 271 | 0.0 | 0.0 | 0.00 | 0.00 | 0.00 | 53 | 1009.0 |
| 20260506001327 | 22 | 280 | 0.0 | 0.0 | 0.00 | 0.00 | 0.00 | 52 | 1026.0 |
| 20260506001204 | 22 | 292 | 0.0 | 1.6 | 0.00 | 0.00 | 0.00 | 52 | 1009.0 |
| 20260506000824 | 23 | 264 | 0.0 | 0.0 | 0.00 | 0.00 | 0.00 | 51 | 1025.7 |
| 20260506000323 | 23 | 235 | 0.0 | 0.0 | 0.00 | 0.00 | 0.00 | 50 | 1025.9 |
| 20260506000205 | 23 | 229 | 0.0 | 8.0 | 0.00 | 0.00 | 0.00 | 50 | 1008.9 |
| 20260505235819 | 23 | 242 | 0.0 | 8.0 | 0.00 | 0.00 | 0.00 | 49 | 1025.5 |
| 20260505235704 | 23 | 228 | 3.2 | 8.0 | 0.00 | 0.00 | 0.00 | 49 | 1008.9 |
| 20260505235316 | 23 | 259 | 0.0 | 4.8 | 0.00 | 0.00 | 0.00 | 50 | 1025.9 |
| 20260505235203 | 23 | 212 | 1.6 | 11.3 | 0.00 | 0.00 | 0.00 | 49 | 1009.0 |
| 20260505234813 | 23 | 234 | 3.2 | 11.3 | 0.00 | 0.00 | 0.00 | 48 | 1025.4 |
| 20260505234311 | 23 | 214 | 8.0 | 12.9 | 0.00 | 0.00 | 0.00 | 48 | 1025.5 |
| 20260505233807 | 23 | 223 | 3.2 | 8.0 | 0.00 | 0.00 | 0.00 | 48 | 1025.4 |
| 20260505233703 | 23 | 231 | 0.0 | 12.9 | 0.00 | 0.00 | 0.00 | 48 | 1008.8 |
| 20260505233305 | 23 | 246 | 1.6 | 4.8 | 0.00 | 0.00 | 0.00 | 49 | 1025.4 |
| 20260505233203 | 23 | 230 | 1.6 | 11.3 | 0.00 | 0.00 | 0.00 | 48 | 1008.7 |
| 20260505232802 | 23 | 226 | 1.6 | 8.0 | 0.00 | 0.00 | 0.00 | 48 | 1025.4 |
| 20260505232704 | 23 | 217 | 4.8 | 12.9 | 0.00 | 0.00 | 0.00 | 48 | 1008.6 |
| 20260505232300 | 23 | 270 | 0.0 | 8.0 | 0.00 | 0.00 | 0.00 | 49 | 1025.7 |
| 20260505232204 | 23 | 189 | 4.8 | 12.9 | 0.00 | 0.00 | 0.00 | 47 | 1008.8 |
| 20260505231756 | 23 | 217 | 8.0 | 12.9 | 0.00 | 0.00 | 0.00 | 48 | 1025.4 |
| 20260505231704 | 24 | 261 | 0.0 | 11.3 | 0.00 | 0.00 | 0.00 | 49 | 1008.8 |
| 20260505231255 | 24 | 247 | 6.4 | 11.3 | 0.00 | 0.00 | 0.00 | 47 | 1025.2 |
| 20260505231204 | 24 | 236 | 3.2 | 12.9 | 0.00 | 0.00 | 0.00 | 48 | 1008.7 |
| 20260505230753 | 24 | 205 | 3.2 | 12.9 | 0.00 | 0.00 | 0.00 | 48 | 1025.4 |
| 20260505230704 | 24 | 263 | 0.0 | 20.9 | 0.00 | 0.00 | 0.00 | 48 | 1008.8 |
| 20260505230249 | 24 | 196 | 8.0 | 12.9 | 0.00 | 0.00 | 0.00 | 47 | 1025.5 |
| 20260505230204 | 24 | 258 | 0.0 | 20.9 | 0.00 | 0.00 | 0.00 | 47 | 1008.9 |
| 20260505225746 | 24 | 238 | 4.8 | 12.9 | 0.00 | 0.00 | 0.00 | 47 | 1025.4 |
| 20260505225243 | 24 | 234 | 4.8 | 8.0 | 0.00 | 0.00 | 0.00 | 47 | 1025.5 |
| 20260505224738 | 25 | 217 | 6.4 | 11.3 | 0.00 | 0.00 | 0.00 | 47 | 1025.3 |
| 20260505224704 | 24 | 208 | 3.2 | 19.3 | 0.00 | 0.00 | 0.00 | 47 | 1008.8 |
| 20260505224236 | 25 | 235 | 3.2 | 11.3 | 0.00 | 0.00 | 0.00 | 48 | 1025.4 |
| 20260505224204 | 24 | 252 | 8.0 | 19.3 | 0.00 | 0.00 | 0.00 | 47 | 1008.6 |
| 20260505223733 | 25 | 246 | 3.2 | 8.0 | 0.00 | 0.00 | 0.00 | 49 | 1025.3 |
| 20260505223703 | 24 | 203 | 4.8 | 14.5 | 0.00 | 0.00 | 0.00 | 47 | 1008.5 |
| 20260505223229 | 25 | 214 | 6.4 | 16.1 | 0.00 | 0.00 | 0.00 | 47 | 1025.3 |
| 20260505222725 | 25 | 243 | 1.6 | 3.2 | 0.00 | 0.00 | 0.00 | 48 | 1025.3 |
| 20260505222703 | 25 | 243 | 1.6 | 14.5 | 0.00 | 0.00 | 0.00 | 47 | 1008.8 |
| 20260505222221 | 25 | 260 | 4.8 | 16.1 | 0.00 | 0.00 | 0.00 | 47 | 1025.6 |
| 20260505222204 | 25 | 218 | 4.8 | 14.5 | 0.00 | 0.00 | 0.00 | 46 | 1008.8 |
| 20260505221719 | 25 | 207 | 6.4 | 16.1 | 0.00 | 0.00 | 0.00 | 47 | 1025.5 |
| 20260505221704 | 25 | 247 | 1.6 | 14.5 | 0.00 | 0.00 | 0.00 | 47 | 1008.7 |
| 20260505221215 | 25 | 232 | 8.0 | 11.3 | 0.00 | 0.00 | 0.00 | 46 | 1025.2 |
| 20260505221203 | 25 | 232 | 3.2 | 11.3 | 0.00 | 0.00 | 0.00 | 48 | 1008.6 |
| 20260505220712 | 25 | 202 | 1.6 | 11.3 | 0.00 | 0.00 | 0.00 | 47 | 1025.4 |
| 20260505220210 | 25 | 212 | 6.4 | 8.0 | 0.00 | 0.00 | 0.00 | 46 | 1025.4 |
| 20260505220204 | 25 | 213 | 1.6 | 14.5 | 0.00 | 0.00 | 0.00 | 47 | 1008.6 |
| 20260505215708 | 25 | 206 | 4.8 | 11.3 | 0.00 | 0.00 | 0.00 | 45 | 1025.3 |
| 20260505215704 | 25 | 206 | 4.8 | 12.9 | 0.00 | 0.00 | 0.00 | 45 | 1008.4 |
| 20260505215206 | 25 | 215 | 1.6 | 12.9 | 0.00 | 0.00 | 0.00 | 45 | 1025.2 |
| 20260505215204 | 25 | 218 | 4.8 | 14.5 | 0.00 | 0.00 | 0.00 | 45 | 1008.5 |
| 20260505214703 | 25 | 268 | 1.6 | 16.1 | 0.00 | 0.00 | 0.00 | 46 | 1025.1 |
| 20260505214203 | 25 | 221 | 4.8 | 12.9 | 0.00 | 0.00 | 0.00 | 45 | 1008.5 |
| 20260505214200 | 25 | 198 | 4.8 | 12.9 | 0.00 | 0.00 | 0.00 | 45 | 1025.0 |
| 20260505213705 | 25 | 226 | 4.8 | 19.3 | 0.00 | 0.00 | 0.00 | 45 | 1008.3 |
| 20260505213658 | 25 | 232 | 3.2 | 11.3 | 0.00 | 0.00 | 0.00 | 46 | 1025.1 |
| 20260505213204 | 25 | 246 | 3.2 | 19.3 | 0.00 | 0.00 | 0.00 | 45 | 1008.3 |
| 20260505213155 | 25 | 220 | 6.4 | 17.7 | 0.00 | 0.00 | 0.00 | 45 | 1025.1 |
| 20260505212703 | 25 | 249 | 4.8 | 19.3 | 0.00 | 0.00 | 0.00 | 45 | 1008.4 |
| 20260505212650 | 25 | 218 | 3.2 | 8.0 | 0.00 | 0.00 | 0.00 | 45 | 1025.2 |
| 20260505212148 | 25 | 272 | 1.6 | 17.7 | 0.00 | 0.00 | 0.00 | 46 | 1024.8 |
| 20260505211704 | 25 | 193 | 4.8 | 19.3 | 0.00 | 0.00 | 0.00 | 45 | 1008.2 |
| 20260505211645 | 25 | 128 | 4.8 | 16.1 | 0.00 | 0.00 | 0.00 | 45 | 1025.0 |
| 20260505211204 | 25 | 204 | 9.7 | 19.3 | 0.00 | 0.00 | 0.00 | 46 | 1008.3 |
| 20260505211142 | 25 | 270 | 6.4 | 17.7 | 0.00 | 0.00 | 0.00 | 45 | 1025.1 |
| 20260505210704 | 25 | 215 | 3.2 | 12.9 | 0.00 | 0.00 | 0.00 | 46 | 1008.5 |
| 20260505210639 | 25 | 213 | 8.0 | 12.9 | 0.00 | 0.00 | 0.00 | 45 | 1025.1 |
| 20260505210203 | 25 | 203 | 4.8 | 12.9 | 0.00 | 0.00 | 0.00 | 45 | 1008.4 |
| 20260505210135 | 25 | 233 | 1.6 | 12.9 | 0.00 | 0.00 | 0.00 | 48 | 1025.1 |
| 20260505205633 | 25 | 189 | 0.0 | 0.0 | 0.00 | 0.00 | 0.00 | 46 | 1025.3 |
| 20260505205204 | 25 | 239 | 3.2 | 22.5 | 0.00 | 0.00 | 0.00 | 45 | 1008.5 |
| 20260505205131 | 25 | 220 | 4.8 | 8.0 | 0.00 | 0.00 | 0.00 | 46 | 1025.2 |
| 20260505204627 | 25 | 259 | 6.4 | 12.9 | 0.00 | 0.00 | 0.00 | 46 | 1025.2 |
| 20260505204204 | 25 | 218 | 8.0 | 20.9 | 0.00 | 0.00 | 0.00 | 44 | 1008.6 |
| 20260505204125 | 25 | 219 | 12.9 | 17.7 | 0.00 | 0.00 | 0.00 | 44 | 1025.2 |
| 20260505203704 | 25 | 257 | 4.8 | 20.9 | 0.00 | 0.00 | 0.00 | 45 | 1008.5 |
| 20260505203621 | 25 | 242 | 3.2 | 17.7 | 0.00 | 0.00 | 0.00 | 45 | 1025.3 |
| 20260505203118 | 26 | 249 | 6.4 | 12.9 | 0.00 | 0.00 | 0.00 | 44 | 1025.0 |
| 20260505202705 | 26 | 252 | 3.2 | 19.3 | 0.00 | 0.00 | 0.00 | 45 | 1008.6 |
| 20260505202609 | 26 | 258 | 6.4 | 16.1 | 0.00 | 0.00 | 0.00 | 45 | 1025.1 |
| 20260505202105 | 25 | 208 | 8.0 | 17.7 | 0.00 | 0.00 | 0.00 | 45 | 1025.0 |
| 20260505201704 | 26 | 213 | 9.7 | 20.9 | 0.00 | 0.00 | 0.00 | 44 | 1008.5 |
| 20260505201602 | 26 | 215 | 11.3 | 20.9 | 0.00 | 0.00 | 0.00 | 44 | 1025.2 |
| 20260505201204 | 26 | 147 | 9.7 | 19.3 | 0.00 | 0.00 | 0.00 | 46 | 1008.8 |
| 20260505201100 | 26 | 128 | 11.3 | 16.1 | 0.00 | 0.00 | 0.00 | 46 | 1025.5 |
| 20260505200557 | 26 | 213 | 3.2 | 12.9 | 0.00 | 0.00 | 0.00 | 47 | 1025.2 |
| 20260505200054 | 26 | 264 | 6.4 | 11.3 | 0.00 | 0.00 | 0.00 | 46 | 1025.4 |
| 20260505195703 | 26 | 261 | 3.2 | 25.7 | 0.00 | 0.00 | 0.00 | 44 | 1008.7 |
| 20260505195550 | 26 | 269 | 4.8 | 11.3 | 0.00 | 0.00 | 0.00 | 44 | 1025.3 |
| 20260505195203 | 26 | 212 | 9.7 | 25.7 | 0.00 | 0.00 | 0.00 | 44 | 1008.7 |
| 20260505195048 | 26 | 220 | 9.7 | 25.7 | 0.00 | 0.00 | 0.00 | 44 | 1025.4 |
| 20260505194705 | 26 | 203 | 9.7 | 22.5 | 0.00 | 0.00 | 0.00 | 43 | 1008.8 |
| 20260505194545 | 26 | 209 | 12.9 | 17.7 | 0.00 | 0.00 | 0.00 | 43 | 1025.4 |
| 20260505194204 | 26 | 206 | 8.0 | 19.3 | 0.00 | 0.00 | 0.00 | 45 | 1008.8 |
| 20260505194040 | 26 | 201 | 8.0 | 17.7 | 0.00 | 0.00 | 0.00 | 45 | 1025.5 |
| 20260505193705 | 26 | 213 | 4.8 | 20.9 | 0.00 | 0.00 | 0.00 | 45 | 1009.0 |
| 20260505193537 | 26 | 226 | 4.8 | 12.9 | 0.00 | 0.00 | 0.00 | 45 | 1025.7 |
| 20260505193204 | 26 | 223 | 9.7 | 27.4 | 0.00 | 0.00 | 0.00 | 43 | 1008.7 |
| 20260505193035 | 26 | 220 | 14.5 | 29.0 | 0.00 | 0.00 | 0.00 | 43 | 1025.3 |
| 20260505192704 | 26 | 258 | 3.2 | 12.9 | 0.00 | 0.00 | 0.00 | 45 | 1008.8 |
| 20260505192533 | 26 | 263 | 1.6 | 12.9 | 0.00 | 0.00 | 0.00 | 45 | 1025.4 |
| 20260505192030 | 26 | 219 | 1.6 | 12.9 | 0.00 | 0.00 | 0.00 | 44 | 1025.6 |
| 20260505191703 | 26 | 238 | 8.0 | 14.5 | 0.00 | 0.00 | 0.00 | 43 | 1009.0 |
| 20260505191528 | 26 | 246 | 11.3 | 16.1 | 0.00 | 0.00 | 0.00 | 43 | 1025.7 |
| 20260505191203 | 26 | 212 | 4.8 | 11.3 | 0.00 | 0.00 | 0.00 | 43 | 1008.9 |
| 20260505191026 | 26 | 203 | 9.7 | 11.3 | 0.00 | 0.00 | 0.00 | 43 | 1025.5 |
| 20260505190703 | 26 | 243 | 4.8 | 20.9 | 0.00 | 0.00 | 0.00 | 44 | 1009.1 |
| 20260505190525 | 26 | 240 | 8.0 | 12.9 | 0.00 | 0.00 | 0.00 | 44 | 1025.8 |
| 20260505190202 | 26 | 191 | 12.9 | 20.9 | 0.00 | 0.00 | 0.00 | 43 | 1009.0 |
| 20260505190022 | 26 | 176 | 12.9 | 17.7 | 0.00 | 0.00 | 0.00 | 42 | 1025.7 |
| 20260505185704 | 26 | 213 | 6.4 | 14.5 | 0.00 | 0.00 | 0.00 | 44 | 1009.1 |
| 20260505185519 | 26 | 187 | 8.0 | 11.3 | 0.00 | 0.00 | 0.00 | 44 | 1025.7 |
| 20260505185203 | 26 | 121 | 4.8 | 14.5 | 0.00 | 0.00 | 0.00 | 43 | 1009.1 |
| 20260505185015 | 26 | 169 | 0.0 | 11.3 | 0.00 | 0.00 | 0.00 | 46 | 1025.8 |
| 20260505184703 | 26 | 208 | 4.8 | 19.3 | 0.00 | 0.00 | 0.00 | 43 | 1009.3 |
| 20260505184512 | 26 | 258 | 0.0 | 16.1 | 0.00 | 0.00 | 0.00 | 47 | 1026.0 |
| 20260505184202 | 26 | 202 | 9.7 | 20.9 | 0.00 | 0.00 | 0.00 | 44 | 1009.2 |
| 20260505184009 | 26 | 244 | 9.7 | 16.1 | 0.00 | 0.00 | 0.00 | 45 | 1025.9 |
| 20260505183506 | 27 | 266 | 0.0 | 16.1 | 0.00 | 0.00 | 0.00 | 46 | 1025.8 |
| 20260505183203 | 26 | 233 | 3.2 | 11.3 | 0.00 | 0.00 | 0.00 | 45 | 1009.5 |
| 20260505183002 | 26 | 216 | 4.8 | 11.3 | 0.00 | 0.00 | 0.00 | 45 | 1026.2 |
| 20260505182500 | 26 | 228 | 12.9 | 20.9 | 0.00 | 0.00 | 0.00 | 45 | 1026.2 |
| 20260505182205 | 26 | 208 | 4.8 | 20.9 | 0.00 | 0.00 | 0.00 | 45 | 1009.3 |
| 20260505181955 | 26 | 233 | 4.8 | 12.9 | 0.00 | 0.00 | 0.00 | 44 | 1026.0 |
| 20260505181703 | 26 | 234 | 9.7 | 20.9 | 0.00 | 0.00 | 0.00 | 43 | 1009.4 |
| 20260505181453 | 26 | 245 | 11.3 | 16.1 | 0.00 | 0.00 | 0.00 | 44 | 1026.1 |
| 20260505181203 | 26 | 236 | 3.2 | 19.3 | 0.00 | 0.00 | 0.00 | 45 | 1009.6 |
| 20260505180950 | 26 | 243 | 1.6 | 12.9 | 0.00 | 0.00 | 0.00 | 45 | 1026.3 |
| 20260505180703 | 26 | 197 | 8.0 | 12.9 | 0.00 | 0.00 | 0.00 | 44 | 1009.5 |
| 20260505180446 | 26 | 210 | 8.0 | 12.9 | 0.00 | 0.00 | 0.00 | 44 | 1026.1 |
| 20260505180203 | 26 | 214 | 6.4 | 12.9 | 0.00 | 0.00 | 0.00 | 47 | 1009.6 |
| 20260505175943 | 26 | 210 | 6.4 | 11.3 | 0.00 | 0.00 | 0.00 | 47 | 1026.4 |
| 20260505175703 | 26 | 232 | 4.8 | 11.3 | 0.00 | 0.00 | 0.00 | 47 | 1009.7 |
| 20260505175439 | 26 | 207 | 4.8 | 11.3 | 0.00 | 0.00 | 0.00 | 45 | 1026.4 |
| 20260505175203 | 26 | 218 | 3.2 | 14.5 | 0.00 | 0.00 | 0.00 | 50 | 1009.7 |
| 20260505174935 | 26 | 218 | 6.4 | 11.3 | 0.00 | 0.00 | 0.00 | 50 | 1026.5 |
| 20260505174703 | 26 | 205 | 8.0 | 14.5 | 0.00 | 0.00 | 0.00 | 50 | 1009.6 |
| 20260505174428 | 26 | 215 | 12.9 | 16.1 | 0.00 | 0.00 | 0.00 | 50 | 1026.5 |
| 20260505174204 | 26 | 227 | 3.2 | 8.0 | 0.00 | 0.00 | 0.00 | 54 | 1009.8 |
| 20260505173924 | 26 | 191 | 3.2 | 8.0 | 0.00 | 0.00 | 0.00 | 52 | 1026.5 |
| 20260505173420 | 26 | 268 | 0.0 | 3.2 | 0.00 | 0.00 | 0.00 | 55 | 1026.5 |
| 20260505173204 | 26 | 219 | 3.2 | 11.3 | 0.00 | 0.00 | 0.00 | 52 | 1009.8 |
| 20260505172918 | 26 | 254 | 0.0 | 11.3 | 0.00 | 0.00 | 0.00 | 52 | 1026.5 |
| 20260505172415 | 26 | 246 | 0.0 | 11.3 | 0.00 | 0.00 | 0.00 | 50 | 1026.7 |
| 20260505172203 | 26 | 218 | 4.8 | 20.9 | 0.00 | 0.00 | 0.00 | 51 | 1010.1 |
| 20260505171914 | 26 | 249 | 8.0 | 11.3 | 0.00 | 0.00 | 0.00 | 51 | 1026.5 |
| 20260505171412 | 26 | 199 | 4.8 | 8.0 | 0.00 | 0.00 | 0.00 | 53 | 1026.8 |
| 20260505170909 | 26 | 218 | 6.4 | 12.9 | 0.00 | 0.00 | 0.00 | 50 | 1026.9 |
| 20260505170704 | 26 | 198 | 1.6 | 12.9 | 0.00 | 0.00 | 0.00 | 52 | 1010.1 |
| 20260505170405 | 26 | 226 | 8.0 | 12.9 | 0.00 | 0.00 | 0.00 | 50 | 1026.9 |
| 20260505170204 | 26 | 245 | 3.2 | 11.3 | 0.00 | 0.00 | 0.00 | 52 | 1010.0 |
| 20260505165900 | 26 | 191 | 4.8 | 11.3 | 0.00 | 0.00 | 0.00 | 51 | 1026.9 |
| 20260505165703 | 26 | 215 | 3.2 | 14.5 | 0.00 | 0.00 | 0.00 | 51 | 1010.2 |
| 20260505165350 | 26 | 180 | 11.3 | 16.1 | 0.00 | 0.00 | 0.00 | 51 | 1026.7 |
| 20260505165203 | 26 | 223 | 3.2 | 11.3 | 0.00 | 0.00 | 0.00 | 49 | 1010.3 |
| 20260505164846 | 26 | 223 | 1.6 | 11.3 | 0.00 | 0.00 | 0.00 | 53 | 1026.8 |
| 20260505164703 | 26 | 255 | 1.6 | 8.0 | 0.00 | 0.00 | 0.00 | 50 | 1010.3 |
| 20260505164343 | 26 | 240 | 1.6 | 8.0 | 0.00 | 0.00 | 0.00 | 49 | 1026.8 |
| 20260505164203 | 26 | 272 | 0.0 | 11.3 | 0.00 | 0.00 | 0.00 | 50 | 1010.3 |
| 20260505163841 | 26 | 268 | 4.8 | 8.0 | 0.00 | 0.00 | 0.00 | 47 | 1027.0 |
| 20260505163703 | 26 | 209 | 3.2 | 11.3 | 0.00 | 0.00 | 0.00 | 49 | 1010.4 |
| 20260505163340 | 26 | 204 | 4.8 | 11.3 | 0.00 | 0.00 | 0.00 | 54 | 1026.9 |
| 20260505163205 | 26 | 219 | 4.8 | 11.3 | 0.00 | 0.00 | 0.00 | 50 | 1010.3 |
| 20260505162838 | 26 | 230 | 1.6 | 4.8 | 0.00 | 0.00 | 0.00 | 49 | 1026.9 |
| 20260505162703 | 26 | 239 | 0.0 | 12.9 | 0.00 | 0.00 | 0.00 | 49 | 1010.6 |
| 20260505162334 | 26 | 228 | 6.4 | 8.0 | 0.00 | 0.00 | 0.00 | 49 | 1027.0 |
| 20260505162204 | 26 | 217 | 3.2 | 19.3 | 0.00 | 0.00 | 0.00 | 52 | 1010.2 |
| 20260505161831 | 26 | 204 | 3.2 | 12.9 | 0.00 | 0.00 | 0.00 | 50 | 1027.1 |
| 20260505161328 | 26 | 286 | 0.0 | 4.8 | 0.00 | 0.00 | 0.00 | 54 | 1027.2 |
| 20260505161203 | 26 | 253 | 4.8 | 12.9 | 0.00 | 0.00 | 0.00 | 50 | 1010.3 |
| 20260505160825 | 26 | 216 | 8.0 | 8.0 | 0.00 | 0.00 | 0.00 | 52 | 1027.2 |
| 20260505160703 | 26 | 224 | 4.8 | 12.9 | 0.00 | 0.00 | 0.00 | 49 | 1010.6 |
| 20260505160323 | 26 | 241 | 6.4 | 12.9 | 0.00 | 0.00 | 0.00 | 50 | 1027.0 |
| 20260505160204 | 26 | 259 | 1.6 | 4.8 | 0.00 | 0.00 | 0.00 | 51 | 1010.5 |
| 20260505153256 | 25 | 256 | 0.0 | 11.3 | 0.00 | 0.00 | 0.00 | 51 | 1027.4 |
| 20260505153204 | 25 | 227 | 1.6 | 11.3 | 0.00 | 0.00 | 0.00 | 53 | 1010.7 |
| 20260505152753 | 25 | 242 | 0.0 | 0.0 | 0.00 | 0.00 | 0.00 | 54 | 1027.2 |
| 20260505152704 | 25 | 265 | 0.0 | 8.0 | 0.00 | 0.00 | 0.00 | 53 | 1010.6 |
| 20260505152249 | 25 | 227 | 1.6 | 4.8 | 0.00 | 0.00 | 0.00 | 53 | 1027.4 |
| 20260505152203 | 25 | 234 | 1.6 | 11.3 | 0.00 | 0.00 | 0.00 | 52 | 1010.7 |
| 20260505151749 | 25 | 211 | 0.0 | 11.3 | 0.00 | 0.00 | 0.00 | 52 | 1027.5 |
| 20260505151703 | 25 | 223 | 3.2 | 11.3 | 0.00 | 0.00 | 0.00 | 51 | 1010.7 |
| 20260505151247 | 25 | 228 | 0.0 | 11.3 | 0.00 | 0.00 | 0.00 | 54 | 1027.4 |
| 20260505151204 | 25 | 233 | 4.8 | 11.3 | 0.00 | 0.00 | 0.00 | 50 | 1010.9 |
| 20260505150744 | 25 | 223 | 8.0 | 11.3 | 0.00 | 0.00 | 0.00 | 51 | 1027.4 |
| 20260505150703 | 25 | 200 | 3.2 | 8.0 | 0.00 | 0.00 | 0.00 | 51 | 1010.9 |
| 20260505150241 | 25 | 253 | 0.0 | 3.2 | 0.00 | 0.00 | 0.00 | 56 | 1027.6 |
| 20260505150203 | 25 | 262 | 1.6 | 12.9 | 0.00 | 0.00 | 0.00 | 54 | 1010.7 |
| 20260505140206 | 23 | 267 | 0.0 | 0.0 | 0.00 | 0.00 | 0.00 | 54 | 1027.7 |
| 20260505140203 | 23 | 273 | 0.0 | 1.6 | 0.00 | 0.00 | 0.00 | 58 | 1011.2 |
| 20260505130130 | 18 | 245 | 0.0 | 0.0 | 0.00 | 0.00 | 0.00 | 67 | 1028.4 |
| 20260505124705 | 20 | 254 | 0.0 | 0.0 | 0.00 | 0.00 | 0.00 | 65 | 1011.8 |
| 20260505124619 | 20 | 246 | 0.0 | 0.0 | 0.00 | 0.00 | 0.00 | 65 | 1028.5 |
| 20260505124115 | 19 | 276 | 0.0 | 0.0 | 0.00 | 0.00 | 0.00 | 67 | 1028.5 |
| 20260505123704 | 18 | 263 | 0.0 | 4.8 | 0.00 | 0.00 | 0.00 | 68 | 1011.7 |
| 20260505123611 | 18 | 263 | 0.0 | 0.0 | 0.00 | 0.00 | 0.00 | 68 | 1028.4 |
| 20260505123205 | 18 | 275 | 0.0 | 4.8 | 0.00 | 0.00 | 0.00 | 66 | 1011.5 |
| 20260505123108 | 18 | 276 | 0.0 | 3.2 | 0.00 | 0.00 | 0.00 | 66 | 1028.1 |
| 20260505122704 | 18 | 203 | 0.0 | 4.8 | 0.00 | 0.00 | 0.00 | 69 | 1011.7 |
| 20260505122605 | 18 | 170 | 0.0 | 0.0 | 0.00 | 0.00 | 0.00 | 69 | 1028.3 |
| 20260505122204 | 17 | 280 | 0.0 | 4.8 | 0.00 | 0.00 | 0.00 | 69 | 1011.8 |
| 20260505122102 | 17 | 274 | 0.0 | 3.2 | 0.00 | 0.00 | 0.00 | 69 | 1028.5 |
| 20260505121703 | 17 | 265 | 0.0 | 1.6 | 0.00 | 0.00 | 0.00 | 69 | 1011.6 |
| 20260505121559 | 17 | 265 | 0.0 | 0.0 | 0.00 | 0.00 | 0.00 | 69 | 1028.2 |
| 20260505121204 | 17 | 244 | 0.0 | 1.6 | 0.00 | 0.00 | 0.00 | 70 | 1011.6 |
| 20260505121055 | 17 | 244 | 0.0 | 0.0 | 0.00 | 0.00 | 0.00 | 70 | 1028.3 |
| 20260505120703 | 17 | 238 | 0.0 | 1.6 | 0.00 | 0.00 | 0.00 | 70 | 1011.6 |
| 20260505120551 | 17 | 251 | 0.0 | 0.0 | 0.00 | 0.00 | 0.00 | 70 | 1028.3 |
| 20260505120204 | 17 | 235 | 0.0 | 0.0 | 0.00 | 0.00 | 0.00 | 71 | 1011.3 |
| 20260505120047 | 17 | 235 | 0.0 | 0.0 | 0.00 | 0.00 | 0.00 | 71 | 1028.0 |
| 20260505115704 | 17 | 263 | 0.0 | 0.0 | 0.00 | 0.00 | 0.00 | 71 | 1011.4 |
| 20260505115542 | 17 | 264 | 0.0 | 0.0 | 0.00 | 0.00 | 0.00 | 71 | 1028.1 |
| 20260505115203 | 17 | 264 | 0.0 | 0.0 | 0.00 | 0.00 | 0.00 | 72 | 1011.4 |
| 20260505115040 | 17 | 264 | 0.0 | 0.0 | 0.00 | 0.00 | 0.00 | 72 | 1028.1 |
| 20260505114536 | 17 | 272 | 0.0 | 0.0 | 0.00 | 0.00 | 0.00 | 74 | 1028.1 |
| 20260505114204 | 17 | 275 | 0.0 | 0.0 | 0.00 | 0.00 | 0.00 | 74 | 1011.5 |
| 20260505114032 | 17 | 279 | 0.0 | 0.0 | 0.00 | 0.00 | 0.00 | 74 | 1028.1 |
| 20260505113704 | 16 | 15 | 0.0 | 0.0 | 0.00 | 0.00 | 0.00 | 74 | 1011.4 |
| 20260505113524 | 16 | 16 | 0.0 | 0.0 | 0.00 | 0.00 | 0.00 | 74 | 1028.0 |
| 20260505113203 | 16 | 28 | 0.0 | 0.0 | 0.00 | 0.00 | 0.00 | 74 | 1011.4 |
| 20260505113020 | 17 | 28 | 0.0 | 0.0 | 0.00 | 0.00 | 0.00 | 74 | 1027.9 |
| 20260505112704 | 16 | 282 | 0.0 | 0.0 | 0.00 | 0.00 | 0.00 | 75 | 1011.2 |
| 20260505112516 | 16 | 265 | 0.0 | 0.0 | 0.00 | 0.00 | 0.00 | 74 | 1027.7 |
| 20260505112014 | 16 | 265 | 0.0 | 0.0 | 0.00 | 0.00 | 0.00 | 76 | 1028.0 |
| 20260505111704 | 16 | 265 | 0.0 | 8.0 | 0.00 | 0.00 | 0.00 | 76 | 1011.1 |
| 20260505111508 | 16 | 265 | 0.0 | 3.2 | 0.00 | 0.00 | 0.00 | 78 | 1027.7 |
| 20260505111205 | 16 | 265 | 0.0 | 0.0 | 0.00 | 0.00 | 0.00 | 78 | 1011.1 |
| 20260505111005 | 16 | 265 | 0.0 | 0.0 | 0.00 | 0.00 | 0.00 | 77 | 1027.8 |
| 20260505110704 | 16 | 266 | 0.0 | 0.0 | 0.00 | 0.00 | 0.00 | 81 | 1010.8 |
| 20260505110502 | 16 | 266 | 0.0 | 0.0 | 0.00 | 0.00 | 0.00 | 81 | 1027.7 |
| 20260505110203 | 15 | 266 | 0.0 | 0.0 | 0.00 | 0.00 | 0.00 | 83 | 1011.0 |
| 20260505102204 | 11 | 327 | 0.0 | 0.0 | 0.00 | 0.00 | 0.00 | 92 | 1010.7 |
| 20260505101933 | 11 | 333 | 0.0 | 0.0 | 0.00 | 0.00 | 0.00 | 92 | 1027.4 |
| 20260505101433 | 11 | 320 | 0.0 | 0.0 | 0.00 | 0.00 | 0.00 | 92 | 1027.3 |
| 20260505101204 | 11 | 320 | 0.0 | 0.0 | 0.00 | 0.00 | 0.00 | 91 | 1010.7 |
| 20260505100928 | 11 | 320 | 0.0 | 0.0 | 0.00 | 0.00 | 0.00 | 91 | 1027.3 |
| 20260505100704 | 11 | 327 | 0.0 | 1.6 | 0.00 | 0.00 | 0.00 | 91 | 1010.8 |
| 20260505100420 | 11 | 334 | 0.0 | 3.2 | 0.00 | 0.00 | 0.00 | 91 | 1027.1 |
| 20260505095915 | 11 | 135 | 0.0 | 0.0 | 0.00 | 0.00 | 0.00 | 90 | 1027.2 |
| 20260505095413 | 11 | 284 | 0.0 | 0.0 | 0.00 | 0.00 | 0.00 | 90 | 1027.2 |
| 20260505095203 | 11 | 263 | 0.0 | 0.0 | 0.00 | 0.00 | 0.00 | 89 | 1010.3 |
| 20260505094909 | 11 | 263 | 0.0 | 0.0 | 0.00 | 0.00 | 0.00 | 89 | 1027.1 |
| 20260505094703 | 12 | 263 | 0.0 | 0.0 | 0.00 | 0.00 | 0.00 | 88 | 1010.5 |
| 20260505094406 | 12 | 263 | 0.0 | 0.0 | 0.00 | 0.00 | 0.00 | 88 | 1027.1 |
| 20260505094203 | 12 | 263 | 0.0 | 0.0 | 0.00 | 0.00 | 0.00 | 88 | 1010.4 |
| 20260505093901 | 12 | 263 | 0.0 | 0.0 | 0.00 | 0.00 | 0.00 | 88 | 1027.1 |
| 20260505093704 | 12 | 263 | 0.0 | 0.0 | 0.00 | 0.00 | 0.00 | 88 | 1010.3 |
| 20260505093359 | 12 | 263 | 0.0 | 0.0 | 0.00 | 0.00 | 0.00 | 88 | 1027.1 |
| 20260505092856 | 12 | 263 | 0.0 | 0.0 | 0.00 | 0.00 | 0.00 | 88 | 1026.8 |
| 20260505092703 | 12 | 263 | 0.0 | 0.0 | 0.00 | 0.00 | 0.00 | 88 | 1010.5 |
| 20260505092354 | 12 | 263 | 0.0 | 0.0 | 0.00 | 0.00 | 0.00 | 88 | 1027.1 |
| 20260505092203 | 12 | 263 | 0.0 | 0.0 | 0.00 | 0.00 | 0.00 | 87 | 1010.4 |
| 20260505091851 | 12 | 263 | 0.0 | 0.0 | 0.00 | 0.00 | 0.00 | 87 | 1027.1 |
| 20260505091703 | 12 | 263 | 0.0 | 0.0 | 0.00 | 0.00 | 0.00 | 87 | 1010.4 |
| 20260505091349 | 12 | 263 | 0.0 | 0.0 | 0.00 | 0.00 | 0.00 | 88 | 1027.0 |
| 20260505091203 | 12 | 263 | 0.0 | 0.0 | 0.00 | 0.00 | 0.00 | 87 | 1010.3 |
| 20260505090847 | 12 | 263 | 0.0 | 0.0 | 0.00 | 0.00 | 0.00 | 87 | 1027.1 |
| 20260505090345 | 12 | 263 | 0.0 | 0.0 | 0.00 | 0.00 | 0.00 | 87 | 1027.1 |
| 20260505090205 | 12 | 263 | 0.0 | 0.0 | 0.00 | 0.00 | 0.00 | 86 | 1010.4 |
| 20260505085842 | 12 | 263 | 0.0 | 0.0 | 0.00 | 0.00 | 0.00 | 86 | 1027.0 |
| 20260505085702 | 12 | 263 | 0.0 | 0.0 | 0.00 | 0.00 | 0.00 | 86 | 1010.5 |
| 20260505085340 | 12 | 263 | 0.0 | 0.0 | 0.00 | 0.00 | 0.00 | 85 | 1027.1 |
| 20260505084837 | 12 | 263 | 0.0 | 0.0 | 0.00 | 0.00 | 0.00 | 85 | 1027.0 |
| 20260505084703 | 12 | 263 | 0.0 | 0.0 | 0.00 | 0.00 | 0.00 | 86 | 1010.4 |
| 20260505084336 | 12 | 263 | 0.0 | 0.0 | 0.00 | 0.00 | 0.00 | 86 | 1026.9 |
| 20260505084203 | 12 | 263 | 0.0 | 0.0 | 0.00 | 0.00 | 0.00 | 86 | 1010.3 |
| 20260505083832 | 12 | 263 | 0.0 | 0.0 | 0.00 | 0.00 | 0.00 | 86 | 1027.1 |
| 20260505083703 | 12 | 263 | 0.0 | 0.0 | 0.00 | 0.00 | 0.00 | 85 | 1010.3 |
| 20260505083330 | 12 | 263 | 0.0 | 0.0 | 0.00 | 0.00 | 0.00 | 85 | 1027.0 |
| 20260505083203 | 12 | 263 | 0.0 | 0.0 | 0.00 | 0.00 | 0.00 | 84 | 1010.2 |
| 20260505082826 | 13 | 263 | 0.0 | 0.0 | 0.00 | 0.00 | 0.00 | 84 | 1026.8 |
| 20260505082703 | 13 | 263 | 0.0 | 0.0 | 0.00 | 0.00 | 0.00 | 83 | 1010.2 |
| 20260505082322 | 13 | 263 | 0.0 | 0.0 | 0.00 | 0.00 | 0.00 | 83 | 1027.0 |
| 20260505082203 | 13 | 263 | 0.0 | 0.0 | 0.00 | 0.00 | 0.00 | 83 | 1010.3 |
| 20260505081819 | 13 | 263 | 0.0 | 0.0 | 0.00 | 0.00 | 0.00 | 83 | 1027.1 |
| 20260505081703 | 13 | 263 | 0.0 | 0.0 | 0.00 | 0.00 | 0.00 | 83 | 1010.3 |
| 20260505081316 | 13 | 263 | 0.0 | 0.0 | 0.00 | 0.00 | 0.00 | 82 | 1026.7 |
| 20260505081203 | 13 | 263 | 0.0 | 0.0 | 0.00 | 0.00 | 0.00 | 82 | 1010.3 |
| 20260505080812 | 13 | 263 | 0.0 | 0.0 | 0.00 | 0.00 | 0.00 | 82 | 1027.0 |
| 20260505080703 | 13 | 263 | 0.0 | 0.0 | 0.00 | 0.00 | 0.00 | 82 | 1010.2 |
| 20260505080308 | 13 | 263 | 0.0 | 0.0 | 0.00 | 0.00 | 0.00 | 82 | 1026.8 |
| 20260505080203 | 13 | 263 | 0.0 | 0.0 | 0.00 | 0.00 | 0.00 | 82 | 1010.2 |
| 20260505075804 | 13 | 263 | 0.0 | 0.0 | 0.00 | 0.00 | 0.00 | 82 | 1026.8 |
| 20260505075704 | 13 | 263 | 0.0 | 0.0 | 0.00 | 0.00 | 0.00 | 81 | 1010.3 |
| 20260505075304 | 13 | 263 | 0.0 | 0.0 | 0.00 | 0.00 | 0.00 | 81 | 1026.9 |
| 20260505075204 | 13 | 263 | 0.0 | 0.0 | 0.00 | 0.00 | 0.00 | 81 | 1010.3 |
| 20260505074759 | 13 | 263 | 0.0 | 0.0 | 0.00 | 0.00 | 0.00 | 80 | 1026.9 |
| 20260505074704 | 13 | 263 | 0.0 | 0.0 | 0.00 | 0.00 | 0.00 | 80 | 1010.2 |
| 20260505074256 | 13 | 263 | 0.0 | 0.0 | 0.00 | 0.00 | 0.00 | 79 | 1026.8 |
| 20260505074204 | 13 | 263 | 0.0 | 0.0 | 0.00 | 0.00 | 0.00 | 79 | 1010.1 |
| 20260505073753 | 13 | 263 | 0.0 | 0.0 | 0.00 | 0.00 | 0.00 | 79 | 1026.8 |
| 20260505073706 | 13 | 263 | 0.0 | 0.0 | 0.00 | 0.00 | 0.00 | 79 | 1010.1 |
| 20260505073251 | 13 | 263 | 0.0 | 0.0 | 0.00 | 0.00 | 0.00 | 79 | 1026.9 |
| 20260505073204 | 13 | 263 | 0.0 | 0.0 | 0.00 | 0.00 | 0.00 | 79 | 1010.3 |
| 20260505072748 | 14 | 263 | 0.0 | 0.0 | 0.00 | 0.00 | 0.00 | 79 | 1026.9 |
| 20260505072704 | 14 | 263 | 0.0 | 0.0 | 0.00 | 0.00 | 0.00 | 79 | 1010.2 |
| 20260505072244 | 14 | 263 | 0.0 | 0.0 | 0.00 | 0.00 | 0.00 | 78 | 1027.0 |
| 20260505072204 | 14 | 263 | 0.0 | 0.0 | 0.00 | 0.00 | 0.00 | 78 | 1010.2 |
| 20260505071740 | 14 | 263 | 0.0 | 0.0 | 0.00 | 0.00 | 0.00 | 77 | 1027.2 |
| 20260505071703 | 14 | 263 | 0.0 | 0.0 | 0.00 | 0.00 | 0.00 | 77 | 1010.1 |
| 20260505071236 | 14 | 263 | 0.0 | 0.0 | 0.00 | 0.00 | 0.00 | 77 | 1026.9 |
| 20260505071203 | 14 | 263 | 0.0 | 0.0 | 0.00 | 0.00 | 0.00 | 77 | 1010.2 |
| 20260505070734 | 14 | 263 | 0.0 | 0.0 | 0.00 | 0.00 | 0.00 | 77 | 1027.0 |
| 20260505070703 | 14 | 263 | 0.0 | 0.0 | 0.00 | 0.00 | 0.00 | 77 | 1010.3 |
| 20260505070230 | 13 | 263 | 0.0 | 0.0 | 0.00 | 0.00 | 0.00 | 78 | 1027.2 |
| 20260505070203 | 13 | 263 | 0.0 | 0.0 | 0.00 | 0.00 | 0.00 | 78 | 1010.5 |
| 20260505065726 | 13 | 263 | 0.0 | 0.0 | 0.00 | 0.00 | 0.00 | 78 | 1027.1 |
| 20260505065704 | 14 | 263 | 0.0 | 0.0 | 0.00 | 0.00 | 0.00 | 78 | 1010.5 |
| 20260505065223 | 14 | 263 | 0.0 | 0.0 | 0.00 | 0.00 | 0.00 | 77 | 1027.1 |
| 20260505065203 | 14 | 263 | 0.0 | 0.0 | 0.00 | 0.00 | 0.00 | 77 | 1010.4 |
| 20260505064720 | 13 | 263 | 0.0 | 0.0 | 0.00 | 0.00 | 0.00 | 77 | 1027.1 |
| 20260505064704 | 13 | 263 | 0.0 | 0.0 | 0.00 | 0.00 | 0.00 | 78 | 1010.4 |
| 20260505064218 | 13 | 263 | 0.0 | 0.0 | 0.00 | 0.00 | 0.00 | 78 | 1027.2 |
| 20260505064204 | 13 | 263 | 0.0 | 0.0 | 0.00 | 0.00 | 0.00 | 78 | 1010.5 |
| 20260505063715 | 13 | 263 | 0.0 | 0.0 | 0.00 | 0.00 | 0.00 | 78 | 1027.1 |
| 20260505063703 | 13 | 263 | 0.0 | 0.0 | 0.00 | 0.00 | 0.00 | 78 | 1010.3 |
| 20260505063211 | 13 | 263 | 0.0 | 0.0 | 0.00 | 0.00 | 0.00 | 77 | 1027.1 |
| 20260505063203 | 13 | 263 | 0.0 | 0.0 | 0.00 | 0.00 | 0.00 | 77 | 1010.3 |
| 20260505062707 | 13 | 263 | 0.0 | 0.0 | 0.00 | 0.00 | 0.00 | 77 | 1027.1 |
| 20260505062205 | 13 | 263 | 0.0 | 0.0 | 0.00 | 0.00 | 0.00 | 77 | 1027.1 |
| 20260505062203 | 13 | 263 | 0.0 | 0.0 | 0.00 | 0.00 | 0.00 | 78 | 1010.3 |
| 20260505061704 | 13 | 263 | 0.0 | 0.0 | 0.00 | 0.00 | 0.00 | 78 | 1010.5 |
| 20260505061702 | 13 | 263 | 0.0 | 0.0 | 0.00 | 0.00 | 0.00 | 78 | 1027.2 |
| 20260505061204 | 13 | 263 | 0.0 | 0.0 | 0.00 | 0.00 | 0.00 | 78 | 1010.3 |
| 20260505061200 | 13 | 263 | 0.0 | 0.0 | 0.00 | 0.00 | 0.00 | 78 | 1026.9 |
| 20260505060704 | 13 | 263 | 0.0 | 0.0 | 0.00 | 0.00 | 0.00 | 78 | 1010.4 |
| 20260505060657 | 13 | 263 | 0.0 | 0.0 | 0.00 | 0.00 | 0.00 | 78 | 1027.1 |
| 20260505060204 | 13 | 263 | 0.0 | 0.0 | 0.00 | 0.00 | 0.00 | 78 | 1010.3 |
| 20260505060154 | 13 | 263 | 0.0 | 0.0 | 0.00 | 0.00 | 0.00 | 78 | 1026.9 |
| 20260505055704 | 13 | 263 | 0.0 | 0.0 | 0.00 | 0.00 | 0.00 | 77 | 1010.3 |
| 20260505055649 | 13 | 263 | 0.0 | 0.0 | 0.00 | 0.00 | 0.00 | 77 | 1026.8 |
| 20260505055146 | 13 | 263 | 0.0 | 0.0 | 0.00 | 0.00 | 0.00 | 78 | 1026.8 |
| 20260505054704 | 13 | 263 | 0.0 | 0.0 | 0.00 | 0.00 | 0.00 | 77 | 1010.2 |
| 20260505054643 | 13 | 263 | 0.0 | 0.0 | 0.00 | 0.00 | 0.00 | 77 | 1026.9 |
| 20260505054203 | 13 | 263 | 0.0 | 0.0 | 0.00 | 0.00 | 0.00 | 77 | 1010.3 |
| 20260505054141 | 13 | 263 | 0.0 | 0.0 | 0.00 | 0.00 | 0.00 | 77 | 1027.0 |
| 20260505053639 | 13 | 263 | 0.0 | 0.0 | 0.00 | 0.00 | 0.00 | 77 | 1027.1 |
| 20260505053203 | 13 | 263 | 0.0 | 0.0 | 0.00 | 0.00 | 0.00 | 76 | 1010.3 |
| 20260505053135 | 13 | 263 | 0.0 | 0.0 | 0.00 | 0.00 | 0.00 | 76 | 1026.9 |
| 20260505052703 | 13 | 263 | 0.0 | 0.0 | 0.00 | 0.00 | 0.00 | 76 | 1010.4 |
| 20260505052632 | 13 | 263 | 0.0 | 0.0 | 0.00 | 0.00 | 0.00 | 76 | 1027.1 |
| 20260505052204 | 13 | 263 | 0.0 | 0.0 | 0.00 | 0.00 | 0.00 | 76 | 1010.3 |
| 20260505052130 | 13 | 263 | 0.0 | 0.0 | 0.00 | 0.00 | 0.00 | 76 | 1027.1 |
| 20260505051704 | 13 | 263 | 0.0 | 0.0 | 0.00 | 0.00 | 0.00 | 76 | 1010.4 |
| 20260505051626 | 13 | 263 | 0.0 | 0.0 | 0.00 | 0.00 | 0.00 | 76 | 1027.1 |
| 20260505051203 | 13 | 263 | 0.0 | 1.6 | 0.00 | 0.00 | 0.00 | 75 | 1010.3 |
| 20260505051125 | 13 | 263 | 0.0 | 3.2 | 0.00 | 0.00 | 0.00 | 75 | 1026.9 |
| 20260505050703 | 13 | 263 | 0.0 | 0.0 | 0.00 | 0.00 | 0.00 | 77 | 1010.3 |
| 20260505050622 | 13 | 263 | 0.0 | 0.0 | 0.00 | 0.00 | 0.00 | 77 | 1027.0 |
| 20260505050204 | 13 | 263 | 0.0 | 0.0 | 0.00 | 0.00 | 0.00 | 76 | 1010.1 |
| 20260505050120 | 13 | 263 | 0.0 | 0.0 | 0.00 | 0.00 | 0.00 | 76 | 1026.8 |
| 20260505041704 | 14 | 263 | 0.0 | 0.0 | 0.00 | 0.00 | 0.00 | 72 | 1010.4 |
| 20260505041550 | 14 | 263 | 0.0 | 0.0 | 0.00 | 0.00 | 0.00 | 72 | 1027.1 |
| 20260505041205 | 13 | 263 | 0.0 | 0.0 | 0.00 | 0.00 | 0.00 | 71 | 1010.3 |
| 20260505041047 | 13 | 263 | 0.0 | 0.0 | 0.00 | 0.00 | 0.00 | 71 | 1027.0 |
| 20260505040544 | 14 | 263 | 0.0 | 0.0 | 0.00 | 0.00 | 0.00 | 71 | 1027.1 |
| 20260505040204 | 13 | 305 | 0.0 | 0.0 | 0.00 | 0.00 | 0.00 | 71 | 1010.1 |
| 20260505040041 | 13 | 305 | 0.0 | 0.0 | 0.00 | 0.00 | 0.00 | 71 | 1026.9 |
| 20260505035704 | 13 | 305 | 0.0 | 0.0 | 0.00 | 0.00 | 0.00 | 71 | 1010.2 |
| 20260505035537 | 13 | 305 | 0.0 | 0.0 | 0.00 | 0.00 | 0.00 | 71 | 1026.9 |
| 20260505035205 | 13 | 305 | 0.0 | 0.0 | 0.00 | 0.00 | 0.00 | 71 | 1010.0 |
| 20260505035034 | 13 | 305 | 0.0 | 0.0 | 0.00 | 0.00 | 0.00 | 71 | 1026.6 |
| 20260505034703 | 13 | 305 | 0.0 | 0.0 | 0.00 | 0.00 | 0.00 | 70 | 1009.8 |
| 20260505034530 | 13 | 305 | 0.0 | 0.0 | 0.00 | 0.00 | 0.00 | 70 | 1026.5 |
| 20260505034203 | 13 | 307 | 0.0 | 0.0 | 0.00 | 0.00 | 0.00 | 71 | 1009.9 |
| 20260505034028 | 13 | 307 | 0.0 | 0.0 | 0.00 | 0.00 | 0.00 | 71 | 1026.5 |
| 20260505033525 | 13 | 307 | 0.0 | 0.0 | 0.00 | 0.00 | 0.00 | 69 | 1026.7 |
| 20260505033205 | 13 | 307 | 0.0 | 0.0 | 0.00 | 0.00 | 0.00 | 69 | 1010.0 |
| 20260505033023 | 13 | 307 | 0.0 | 0.0 | 0.00 | 0.00 | 0.00 | 70 | 1026.7 |
| 20260505032704 | 13 | 307 | 0.0 | 0.0 | 0.00 | 0.00 | 0.00 | 68 | 1010.1 |
| 20260505032520 | 13 | 307 | 0.0 | 0.0 | 0.00 | 0.00 | 0.00 | 67 | 1027.0 |
| 20260505032204 | 14 | 307 | 0.0 | 0.0 | 0.00 | 0.00 | 0.00 | 67 | 1010.2 |
| 20260505032017 | 14 | 307 | 0.0 | 0.0 | 0.00 | 0.00 | 0.00 | 66 | 1026.9 |
| 20260505031705 | 14 | 307 | 0.0 | 0.0 | 0.00 | 0.00 | 0.00 | 65 | 1010.2 |
| 20260505031514 | 14 | 307 | 0.0 | 0.0 | 0.00 | 0.00 | 0.00 | 66 | 1026.8 |
| 20260505031203 | 14 | 307 | 0.0 | 0.0 | 0.00 | 0.00 | 0.00 | 66 | 1010.2 |
| 20260505031010 | 14 | 307 | 0.0 | 0.0 | 0.00 | 0.00 | 0.00 | 65 | 1026.8 |
| 20260505030705 | 13 | 307 | 0.0 | 0.0 | 0.00 | 0.00 | 0.00 | 67 | 1010.0 |
| 20260505030507 | 13 | 307 | 0.0 | 0.0 | 0.00 | 0.00 | 0.00 | 68 | 1026.8 |
| 20260505030204 | 13 | 307 | 0.0 | 0.0 | 0.00 | 0.00 | 0.00 | 69 | 1010.0 |
| 20260505030003 | 13 | 307 | 0.0 | 0.0 | 0.00 | 0.00 | 0.00 | 69 | 1026.8 |
| 20260505025704 | 13 | 307 | 0.0 | 0.0 | 0.00 | 0.00 | 0.00 | 68 | 1010.1 |
| 20260505025459 | 13 | 307 | 0.0 | 0.0 | 0.00 | 0.00 | 0.00 | 68 | 1026.8 |
| 20260505024959 | 13 | 307 | 0.0 | 0.0 | 0.00 | 0.00 | 0.00 | 68 | 1026.8 |
| 20260505024704 | 13 | 307 | 0.0 | 0.0 | 0.00 | 0.00 | 0.00 | 68 | 1010.1 |
| 20260505024454 | 13 | 307 | 0.0 | 0.0 | 0.00 | 0.00 | 0.00 | 68 | 1026.7 |
| 20260505024204 | 13 | 307 | 0.0 | 0.0 | 0.00 | 0.00 | 0.00 | 69 | 1010.1 |
| 20260505023952 | 13 | 307 | 0.0 | 0.0 | 0.00 | 0.00 | 0.00 | 68 | 1026.9 |
| 20260505023705 | 13 | 307 | 0.0 | 0.0 | 0.00 | 0.00 | 0.00 | 69 | 1009.9 |
| 20260505023449 | 13 | 307 | 0.0 | 0.0 | 0.00 | 0.00 | 0.00 | 69 | 1026.5 |
| 20260505023205 | 13 | 307 | 0.0 | 0.0 | 0.00 | 0.00 | 0.00 | 69 | 1010.2 |
| 20260505022946 | 13 | 307 | 0.0 | 0.0 | 0.00 | 0.00 | 0.00 | 68 | 1026.9 |
| 20260505022704 | 13 | 307 | 0.0 | 0.0 | 0.00 | 0.00 | 0.00 | 68 | 1010.3 |
| 20260505022444 | 13 | 307 | 0.0 | 0.0 | 0.00 | 0.00 | 0.00 | 68 | 1027.1 |
| 20260505021941 | 13 | 307 | 0.0 | 0.0 | 0.00 | 0.00 | 0.00 | 68 | 1027.0 |
| 20260505021704 | 14 | 307 | 0.0 | 0.0 | 0.00 | 0.00 | 0.00 | 67 | 1010.4 |
| 20260505021437 | 14 | 307 | 0.0 | 0.0 | 0.00 | 0.00 | 0.00 | 67 | 1027.1 |
| 20260505021204 | 14 | 307 | 0.0 | 0.0 | 0.00 | 0.00 | 0.00 | 66 | 1010.4 |
| 20260505020933 | 15 | 307 | 0.0 | 0.0 | 0.00 | 0.00 | 0.00 | 65 | 1027.1 |
| 20260505020703 | 15 | 307 | 0.0 | 0.0 | 0.00 | 0.00 | 0.00 | 65 | 1010.5 |
| 20260505020428 | 15 | 307 | 0.0 | 0.0 | 0.00 | 0.00 | 0.00 | 65 | 1027.0 |
| 20260505015925 | 15 | 307 | 0.0 | 0.0 | 0.00 | 0.00 | 0.00 | 65 | 1027.1 |
| 20260505015704 | 15 | 307 | 0.0 | 0.0 | 0.00 | 0.00 | 0.00 | 64 | 1010.3 |
| 20260505015423 | 15 | 307 | 0.0 | 0.0 | 0.00 | 0.00 | 0.00 | 65 | 1027.0 |
| 20260505015205 | 15 | 307 | 0.0 | 0.0 | 0.00 | 0.00 | 0.00 | 65 | 1010.3 |
| 20260505014920 | 14 | 307 | 0.0 | 0.0 | 0.00 | 0.00 | 0.00 | 65 | 1027.2 |
| 20260505014704 | 14 | 307 | 0.0 | 0.0 | 0.00 | 0.00 | 0.00 | 65 | 1010.2 |
| 20260505014416 | 14 | 307 | 0.0 | 0.0 | 0.00 | 0.00 | 0.00 | 65 | 1026.9 |
| 20260505014203 | 14 | 307 | 0.0 | 0.0 | 0.00 | 0.00 | 0.00 | 64 | 1010.2 |
| 20260505013914 | 15 | 307 | 0.0 | 0.0 | 0.00 | 0.00 | 0.00 | 63 | 1026.9 |
| 20260505013703 | 15 | 307 | 0.0 | 0.0 | 0.00 | 0.00 | 0.00 | 63 | 1010.3 |
| 20260505013410 | 15 | 307 | 0.0 | 0.0 | 0.00 | 0.00 | 0.00 | 63 | 1027.1 |
| 20260505013204 | 15 | 307 | 0.0 | 0.0 | 0.00 | 0.00 | 0.00 | 62 | 1010.2 |
| 20260505012909 | 15 | 307 | 0.0 | 0.0 | 0.00 | 0.00 | 0.00 | 62 | 1026.8 |
| 20260505012704 | 15 | 307 | 0.0 | 0.0 | 0.00 | 0.00 | 0.00 | 62 | 1010.3 |
| 20260505012406 | 15 | 307 | 0.0 | 0.0 | 0.00 | 0.00 | 0.00 | 62 | 1026.9 |
| 20260505012204 | 15 | 307 | 0.0 | 0.0 | 0.00 | 0.00 | 0.00 | 63 | 1010.1 |
| 20260505011902 | 15 | 307 | 0.0 | 0.0 | 0.00 | 0.00 | 0.00 | 64 | 1026.8 |
| 20260505011704 | 15 | 307 | 0.0 | 0.0 | 0.00 | 0.00 | 0.00 | 64 | 1010.2 |
| 20260505011359 | 15 | 307 | 0.0 | 0.0 | 0.00 | 0.00 | 0.00 | 64 | 1026.9 |
| 20260505011204 | 15 | 307 | 0.0 | 0.0 | 0.00 | 0.00 | 0.00 | 62 | 1010.3 |
| 20260505010855 | 15 | 307 | 0.0 | 0.0 | 0.00 | 0.00 | 0.00 | 62 | 1026.6 |
| 20260505010351 | 15 | 307 | 0.0 | 0.0 | 0.00 | 0.00 | 0.00 | 61 | 1026.8 |
| 20260505010204 | 16 | 307 | 0.0 | 0.0 | 0.00 | 0.00 | 0.00 | 60 | 1010.2 |
| 20260505005847 | 16 | 307 | 0.0 | 0.0 | 0.00 | 0.00 | 0.00 | 60 | 1026.6 |
| 20260505005702 | 16 | 307 | 0.0 | 0.0 | 0.00 | 0.00 | 0.00 | 60 | 1010.1 |
| 20260505005344 | 15 | 307 | 0.0 | 0.0 | 0.00 | 0.00 | 0.00 | 60 | 1026.5 |
| 20260505004842 | 15 | 307 | 0.0 | 0.0 | 0.00 | 0.00 | 0.00 | 61 | 1026.7 |
| 20260505004704 | 15 | 307 | 0.0 | 0.0 | 0.00 | 0.00 | 0.00 | 62 | 1009.9 |
| 20260505004338 | 15 | 307 | 0.0 | 0.0 | 0.00 | 0.00 | 0.00 | 62 | 1026.3 |
| 20260505004203 | 15 | 307 | 0.0 | 0.0 | 0.00 | 0.00 | 0.00 | 61 | 1009.7 |
| 20260505003836 | 15 | 307 | 0.0 | 0.0 | 0.00 | 0.00 | 0.00 | 61 | 1026.6 |
| 20260505003704 | 15 | 307 | 0.0 | 0.0 | 0.00 | 0.00 | 0.00 | 60 | 1009.6 |
| 20260505003333 | 15 | 307 | 0.0 | 0.0 | 0.00 | 0.00 | 0.00 | 60 | 1026.5 |
| 20260505003203 | 15 | 307 | 0.0 | 0.0 | 0.00 | 0.00 | 0.00 | 59 | 1009.7 |
| 20260505002828 | 16 | 307 | 0.0 | 0.0 | 0.00 | 0.00 | 0.00 | 59 | 1026.3 |
| 20260505002703 | 16 | 307 | 0.0 | 0.0 | 0.00 | 0.00 | 0.00 | 60 | 1009.7 |
| 20260505002326 | 16 | 307 | 0.0 | 0.0 | 0.00 | 0.00 | 0.00 | 59 | 1026.2 |
| 20260505002204 | 16 | 307 | 0.0 | 0.0 | 0.00 | 0.00 | 0.00 | 59 | 1009.8 |